20:06
Airports
History
Links
Donate
Help keep this website running!
PayPal
Bitcoin
This page is community maintained. The information is intended for PC simulator navigation or reference.
Always use approved charts for navigation.
LS90
Caddo Detention Center
Caddo Detention Center (LS90)
Keithville, Louisiana, United States (71047)
4
Lat/Lng:32° 15' 44.58" N / 93° 56' 8.66" W
32.262382 / -93.93574
Elevation:294'ft / 90mMSL
ID / ICAO:LS90
Runways:1
Longest:09-27
Grass 740m / 2,429ft
Nearby Weather19:56 GMT 2018-02-23
Nearby weather at KSHV, Shreveport Rgnl located 14.3 nautical miles from LS90
Altimeter: 30.12
Visibility: 7.0 statute miles
Wind: 3 knots (from 010°)
Temp: 22°c / 72°f
Humidity: 78.1%

METAR: KSHV 231956Z 01003KT 7SM FEW014 SCT027 BKN130 22/18 A3012 RMK SLP198 T02170183

(Powered by phpweather)
Nearby VORs <50NM
Nearby NDBs
Runway 09 / 27
Dimensions:740.3 x 36.6m 2429' x 120'ft
Surface:Grass
Runway 09 [A]Runway 27 [B]
Heading:095°TH 275°TH
Lat:
Lng:
32° 15' 45.63"N
93° 56' 22.91"W
32° 15' 43.52"N
93° 55' 54.41"W
User Notes and Comments
32° 15' 44.58" N / 93° 56' 8.66" W
Distance To
Airport ID:
Nearby Airports
(R) Old Hickory Ranch 8.9 NM
56LA NE 50°
4 Bluebird Hill 9.8 NM
5F5 NE 54°
4 Heinsohns Airfield 12.3 NM
78LA E 88°
(C) Shreveport Rgnl 14.3 NM
KSHV ( WX ) NNE 26°
(U) Lucien 14.4 NM
F33 NE 53°
(U) C E RUSTY WILLIAMS 16.5 NM
3F3 SE 142°
(R) Naylor 17.1 NM
LA56 ENE 71°
VFR Chart
Flight Planning at SkyVector.com